Flag for United Arab Emirates Weather past 2 weeks in Umm al-Quwain, Umm al-Quwain, United Arab Emirates

Now
88 °F

Clear.


Feels Like: 87 °F
Forecast: 87 / 100 °F
Wind: 3 mph from Southeast

Location: Sharjah International Airport

Current Time: May 31, 2015 at 1:48:44 AM

Latest Report: May 31, 2015 at 1:00 AM


Visibility: 10 mi

Pressure: 29.71 "Hg

Humidity: 35%

Dew point: 57 °F

Location of Umm al-QuwainLocation

Historic Weather in Umm al-Quwain — Graph

°F

Umm al-Quwain temperature yesterday

Maximum temperature yesterday: 111 °F (at 1:00 PM)
Minimum temperature yesterday: 79 °F (at 2:00 AM)
Average temperature yesterday: 95 °F

Past Weeks' High & Low Weather Summary

 TemperatureHumidityPressure
High111 °F (May 30, 1:00 PM)79% (May 20, 3:00 AM)29.77 "Hg (May 20, 3:00 AM)
Low73 °F (May 22, 6:00 AM)7% (May 30, 1:00 PM)29.59 "Hg (May 28, 5:00 PM)
Average92 °F37%29.68 "Hg
* Reported Midnight between May 15 and May 16 — Midnight between May 30 and May 31, Umm al-Quwain, Weather by CustomWeather, © 2015

Note: Actual official high and low records may vary slightly from our data, if they occured in-between our weather recording intervals... More about our weather records

Advertising

Umm al-Quwain weather history for previous 24 hours

 ConditionsComfort  
Time TempWeatherWind HumidityBarometerVisibility
12:00 AM
Sun, May 31
90 °FClear.3 mph36%29.74 "Hg10 mi
11:00 PM
Sat, May 30
91 °FClear.1 mph36%29.74 "Hg10 mi
10:00 PM91 °FClear.1 mph38%29.74 "Hg10 mi
9:00 PM91 °FClear.3 mph41%29.74 "Hg10 mi
8:00 PM95 °FClear.3 mph32%29.71 "Hg10 mi
7:00 PM99 °FSunny.6 mph24%29.71 "Hg10 mi
6:00 PM100 °FSunny.10 mph21%29.68 "Hg10 mi
5:00 PM102 °FSunny.13 mph23%29.68 "Hg10 mi
4:00 PM106 °FSunny.14 mph19%29.68 "Hg10 mi
3:00 PM108 °FSunny.17 mph15%29.68 "Hg10 mi
2:00 PM109 °FSunny.9 mph12%29.71 "Hg10 mi
1:00 PM111 °FPassing clouds.5 mph7%29.71 "HgN/A
12:00 PM109 °FSunny.8 mph8%29.74 "Hg10 mi
11:00 AM108 °FSunny.12 mph10%29.74 "Hg10 mi
10:00 AM104 °FSunny.12 mph17%29.77 "Hg10 mi
9:00 AM99 °FSunny.12 mph21%29.77 "Hg10 mi
8:00 AM95 °FSunny.9 mph20%29.74 "Hg10 mi
7:00 AM84 °FSunny.8 mph29%29.71 "Hg10 mi
6:00 AM79 °FSunny.8 mph34%29.71 "Hg10 mi
5:00 AM81 °FClear.6 mph37%29.68 "Hg10 mi
3:00 AM79 °FClear.3 mph48%29.68 "Hg10 mi
2:00 AM79 °FClear.3 mph48%29.68 "Hg10 mi
1:00 AM82 °FClear.7 mph48%29.68 "Hg10 mi
Weather by CustomWeather, © 2015

See weather overviewHow to use our weather pages